�N����,����,�~����,�C��,���x,�C��,����,���ϕ���,�ő�u�ԕ���,�ő厞����,���˗�,�I�_���x,�n�����x,�ő啗���N��,DTYPE
"21/02/20","00:10",0.0,-0.4,91.9,1010.2,326.9,1.3,1.9,333.1,0.00,-1.5,5.2,"00:05:36",1
"21/02/20","00:20",0.0,-0.5,92.0,1010.0,308.1,1.1,2.0,338.2,0.00,-1.6,5.2,"00:13:04",1
"21/02/20","00:30",0.0,-0.7,92.4,1010.0,312.1,0.8,1.8,324.7,0.00,-1.7,5.0,"00:27:52",1
"21/02/20","00:40",0.0,-0.8,92.6,1009.7,305.6,1.2,2.2,311.1,0.00,-1.8,5.0,"00:35:28",1
"21/02/20","00:50",0.0,-1.0,92.9,1009.5,300.5,1.7,3.1,319.3,0.00,-2.0,4.9,"00:46:48",1
"21/02/20","01:00",0.0,-0.9,93.2,1009.7,301.6,1.2,2.2,333.8,0.00,-1.8,5.0,"00:59:52",1
"21/02/20","01:10",0.0,-0.5,93.5,1009.3,333.9,1.6,2.7,325.2,0.00,-1.4,4.8,"01:04:48",1
"21/02/20","01:20",0.0,-0.5,93.6,1009.5,311.6,1.6,2.8,325.3,0.00,-1.4,4.8,"01:11:20",1
"21/02/20","01:30",0.0,-0.5,93.8,1009.5,291.1,1.0,1.8,316.1,0.00,-1.3,4.7,"01:28:40",1
"21/02/20","01:40",0.0,-0.2,94.0,1009.7,288.7,0.8,1.3,321.0,0.00,-1.0,5.0,"01:30:08",1
"21/02/20","01:50",0.0,0.2,94.1,1010.0,303.0,1.2,2.1,322.7,0.00,-0.6,5.0,"01:42:24",1
"21/02/20","02:00",0.0,0.4,94.2,1009.7,282.2,1.6,2.4,306.9,0.00,-0.4,5.1,"01:58:16",1
"21/02/20","02:10",0.0,0.6,94.3,1010.2,312.9,1.8,2.7,331.1,0.00,-0.2,5.2,"02:06:56",1
"21/02/20","02:20",0.0,0.7,94.4,1009.7,287.9,1.5,2.7,325.9,0.00,-0.1,5.1,"02:11:28",1
"21/02/20","02:30",0.0,1.0,94.5,1010.0,295.5,1.8,2.6,315.8,0.00,0.3,4.9,"02:27:20",1
"21/02/20","02:40",0.0,1.2,94.6,1010.2,309.6,1.5,2.5,312.3,0.00,0.5,4.9,"02:35:04",1
"21/02/20","02:50",0.0,1.2,94.6,1009.7,283.0,1.3,1.8,291.9,0.00,0.5,5.2,"02:40:40",1
"21/02/20","03:00",0.0,1.2,94.7,1010.2,282.2,1.5,2.1,298.8,0.00,0.5,5.2,"02:53:44",1
"21/02/20","03:10",0.0,1.3,94.8,1009.7,275.0,1.1,2.1,312.9,0.00,0.6,5.3,"03:08:40",1
"21/02/20","03:20",0.0,1.3,94.9,1009.5,316.7,2.0,2.8,322.2,0.00,0.6,5.2,"03:19:44",1
"21/02/20","03:30",0.0,1.3,95.0,1009.5,297.0,1.6,2.7,323.6,0.00,0.6,5.2,"03:20:40",1
"21/02/20","03:40",0.0,1.4,95.1,1009.7,310.8,1.7,2.1,315.5,0.00,0.7,5.3,"03:36:32",1
"21/02/20","03:50",0.0,1.5,95.2,1010.0,308.4,1.8,2.5,321.2,0.00,0.9,5.2,"03:44:48",1
"21/02/20","04:00",0.0,1.5,95.3,1009.7,315.5,2.1,2.6,308.7,0.00,0.9,47.2,"03:51:04",1
"21/02/20","04:10",0.0,1.6,95.4,1009.7,316.9,1.7,2.9,322.1,0.00,1.0,130.0,"04:08:32",1
"21/02/20","04:20",0.0,1.7,95.4,1009.7,316.7,2.0,3.1,321.2,0.00,1.1,130.0,"04:16:16",1
"21/02/20","04:30",0.0,1.7,95.4,1010.0,287.7,1.6,2.4,326.1,0.00,1.1,130.0,"04:20:32",1
"21/02/20","04:40",0.0,1.7,95.5,1009.7,298.3,1.7,2.5,312.4,0.00,1.1,130.0,"04:36:00",1
"21/02/20","04:50",0.0,1.9,95.5,1010.0,294.6,1.2,1.9,315.0,0.00,1.3,130.0,"04:48:32",1
"21/02/20","05:00",0.0,1.9,95.5,1009.3,318.0,1.6,2.6,323.5,0.00,1.3,130.0,"04:56:00",1
"21/02/20","05:10",0.0,1.9,95.6,1009.7,318.7,1.6,2.8,322.3,0.00,1.3,130.0,"05:04:08",1
"21/02/20","05:20",0.0,1.9,95.6,1009.5,288.4,1.2,2.1,310.6,0.00,1.3,130.0,"05:19:12",1
"21/02/20","05:30",0.0,2.0,95.6,1009.5,312.2,1.6,2.5,322.8,0.00,1.4,130.0,"05:22:00",1
"21/02/20","05:40",0.0,2.0,95.6,1009.7,283.7,1.2,1.7,315.1,0.00,1.4,130.0,"05:39:36",1
"21/02/20","05:50",0.0,2.0,95.6,1009.7,302.2,1.6,2.1,313.2,0.00,1.4,130.0,"05:43:36",1
"21/02/20","06:00",0.0,2.0,95.6,1009.3,290.5,1.3,2.0,313.3,0.00,1.4,130.0,"05:50:32",1
"21/02/20","06:10",0.0,2.0,95.6,1009.7,322.9,1.7,2.5,321.2,0.00,1.4,130.0,"06:05:20",1
"21/02/20","06:20",0.0,2.0,95.6,1009.3,294.4,1.6,1.9,323.8,0.00,1.4,130.0,"06:10:24",1
"21/02/20","06:30",0.0,2.0,95.6,1009.3,300.2,1.7,2.5,321.5,0.00,1.4,130.0,"06:26:32",1
"21/02/20","06:40",0.0,2.0,95.6,1009.3,320.7,1.6,2.1,321.5,0.00,1.4,130.0,"06:32:24",1
"21/02/20","06:50",0.0,2.0,95.6,1009.5,300.7,1.6,2.2,313.2,0.00,1.4,130.0,"06:46:16",1
"21/02/20","07:00",0.0,2.0,95.6,1009.3,298.9,1.7,2.2,308.8,0.00,1.4,130.0,"06:54:24",1
"21/02/20","07:10",0.0,2.0,95.6,1009.7,316.3,2.0,2.5,323.6,0.00,1.4,130.0,"07:06:08",1
"21/02/20","07:20",0.0,2.2,95.6,1009.7,297.2,1.6,2.2,323.1,0.00,1.6,130.0,"07:19:20",1
"21/02/20","07:30",0.0,2.3,95.5,1010.0,310.2,2.1,2.4,314.8,0.00,1.7,130.0,"07:21:20",1
"21/02/20","07:40",0.0,2.3,95.4,1010.0,293.2,1.6,2.2,320.9,0.00,1.7,130.0,"07:32:24",1
"21/02/20","07:50",0.0,2.4,95.4,1010.0,290.2,1.7,2.7,321.3,0.00,1.8,130.0,"07:49:44",1
"21/02/20","08:00",0.0,2.6,95.3,1010.2,291.4,1.7,3.1,319.2,0.00,2.0,130.0,"07:50:24",1
"21/02/20","08:10",0.0,2.9,95.2,1010.2,288.5,1.5,1.8,288.2,0.01,2.2,130.0,"08:00:08",1
"21/02/20","08:20",0.0,3.1,95.1,1010.0,280.7,1.7,2.4,311.2,0.02,2.4,130.0,"08:15:28",1
"21/02/20","08:30",0.0,3.6,94.9,1010.2,292.5,1.6,2.0,313.4,0.04,2.9,130.0,"08:20:48",1
"21/02/20","08:40",0.0,3.8,94.6,1010.9,322.6,1.7,2.9,323.7,0.07,3.1,130.0,"08:32:08",1
"21/02/20","08:50",0.0,4.2,94.3,1010.4,292.6,1.2,2.1,331.9,0.06,3.4,130.0,"08:40:24",1
"21/02/20","09:00",0.0,4.7,93.8,1010.4,259.4,1.1,2.0,277.0,0.09,3.8,130.0,"08:56:26",1
"21/02/20","09:10",0.0,5.0,93.3,1010.4,263.2,0.8,1.4,234.1,0.10,4.0,130.0,"09:03:52",1
"21/02/20","09:20",0.0,5.6,92.7,1010.7,204.1,0.5,1.2,258.8,0.18,4.6,130.0,"09:17:28",1
"21/02/20","09:30",0.0,6.3,91.3,1010.4,295.2,0.8,1.8,325.5,0.23,5.0,130.0,"09:28:26",1
"21/02/20","09:40",0.0,6.6,89.2,1010.9,159.0,0.7,2.5,128.3,0.27,5.0,130.0,"09:38:16",1
"21/02/20","09:50",0.0,6.9,87.3,1010.9,124.8,1.0,2.5,119.7,0.28,5.0,130.0,"09:46:08",1
"21/02/20","10:00",0.0,7.3,84.7,1011.2,120.3,1.2,2.0,115.7,0.27,4.9,130.0,"09:54:40",1
"21/02/20","10:10",0.0,8.3,81.4,1011.2,175.1,1.0,2.1,149.4,0.33,5.3,130.0,"10:03:04",1
"21/02/20","10:20",0.0,8.8,78.1,1010.7,149.9,1.6,2.9,138.3,0.29,5.2,130.0,"10:10:16",1
"21/02/20","10:30",0.0,9.4,75.5,1010.7,142.1,1.8,3.9,112.9,0.37,5.3,130.0,"10:20:24",1
"21/02/20","10:40",0.0,10.3,73.2,1010.7,180.9,1.3,3.2,134.6,0.41,5.8,130.0,"10:36:32",1
"21/02/20","10:50",0.0,10.8,70.2,1010.7,152.4,1.5,3.3,116.5,0.43,5.6,130.0,"10:41:28",1
"21/02/20","11:00",0.0,11.5,68.3,1010.2,328.9,1.1,2.1,346.3,0.44,5.9,130.0,"10:53:12",1
"21/02/20","11:10",0.0,12.3,66.1,1010.0,317.3,1.3,2.9,325.4,0.43,6.2,130.0,"11:04:32",1
"21/02/20","11:20",0.0,13.0,63.3,1010.0,294.7,1.7,5.0,318.9,0.48,6.2,130.0,"11:17:52",1
"21/02/20","11:30",0.0,13.3,62.2,1010.0,290.0,2.5,4.8,339.0,0.48,6.3,130.0,"11:20:32",1
"21/02/20","11:40",0.0,13.6,60.8,1009.5,269.7,2.2,6.6,321.9,0.48,6.2,130.0,"11:37:12",1
"21/02/20","11:50",0.0,14.1,59.2,1009.0,272.5,2.2,4.9,224.0,0.49,6.3,130.0,"11:42:24",1
"21/02/20","12:00",0.0,14.1,57.3,1008.8,285.7,2.8,5.8,303.1,0.50,5.8,130.0,"11:54:48",1
"21/02/20","12:10",0.0,14.2,55.4,1008.6,299.8,3.6,7.4,317.9,0.50,5.4,130.0,"12:00:02",1
"21/02/20","12:20",0.0,14.1,54.5,1008.1,315.5,4.1,7.8,325.4,0.51,5.1,130.0,"12:10:08",1
"21/02/20","12:30",0.0,14.4,54.5,1007.6,317.6,4.2,7.8,333.9,0.51,5.4,130.0,"12:21:20",1
"21/02/20","12:40",0.0,15.0,53.2,1007.8,293.5,3.4,6.4,249.7,0.51,5.6,130.0,"12:37:20",1
"21/02/20","12:50",0.0,15.3,51.5,1007.6,293.0,3.0,6.2,330.2,0.50,5.4,130.0,"12:44:16",1
"21/02/20","13:00",0.0,15.4,49.4,1007.6,301.1,2.8,7.9,343.7,0.50,4.9,130.0,"12:56:16",1
"21/02/20","13:10",0.0,14.9,50.0,1007.4,301.4,4.2,9.8,347.3,0.49,4.6,130.0,"13:06:56",1
"21/02/20","13:20",0.0,15.1,51.5,1007.1,307.8,4.2,7.7,309.6,0.46,5.2,130.0,"13:10:32",1
"21/02/20","13:30",0.0,15.0,50.6,1007.1,313.1,4.5,7.4,338.8,0.47,4.9,130.0,"13:23:28",1
"21/02/20","13:40",0.0,15.0,51.3,1007.1,278.4,3.6,6.3,336.2,0.42,5.1,130.0,"13:30:32",1
"21/02/20","13:50",0.0,15.8,50.1,1006.9,271.8,2.2,4.3,274.3,0.44,5.5,130.0,"13:49:20",1
"21/02/20","14:00",0.0,14.8,50.7,1006.9,313.5,4.6,9.5,342.5,0.31,4.7,130.0,"13:51:28",1
"21/02/20","14:10",0.0,15.0,50.4,1006.7,313.0,4.1,8.6,321.9,0.36,4.8,130.0,"14:05:34",1
"21/02/20","14:20",0.0,15.3,50.0,1006.7,263.9,2.2,6.0,231.3,0.29,5.0,130.0,"14:11:12",1
"21/02/20","14:30",0.0,15.1,49.3,1006.7,263.5,2.8,4.9,211.6,0.22,4.6,130.0,"14:27:28",1
"21/02/20","14:40",0.0,14.8,49.3,1006.4,254.8,2.7,5.5,234.1,0.19,4.3,130.0,"14:35:44",1
"21/02/20","14:50",0.0,14.8,49.4,1006.4,266.2,2.5,4.4,230.4,0.16,4.4,130.0,"14:48:24",1
"21/02/20","15:00",0.0,15.0,49.2,1006.4,265.1,3.0,5.9,328.1,0.27,4.5,130.0,"14:56:24",1
"21/02/20","15:10",0.0,14.8,49.0,1006.2,249.1,3.0,7.3,235.9,0.17,4.2,130.0,"15:02:48",1
"21/02/20","15:20",0.0,14.8,49.6,1006.2,252.4,2.2,4.7,231.8,0.14,4.4,130.0,"15:15:36",1
"21/02/20","15:30",0.0,14.9,49.7,1006.4,259.1,1.7,2.9,291.2,0.13,4.5,130.0,"15:20:48",1
"21/02/20","15:40",0.0,15.0,48.6,1006.4,256.1,2.3,3.7,259.7,0.18,4.3,130.0,"15:30:24",1
"21/02/20","15:50",0.0,15.5,47.7,1006.4,256.5,2.0,4.1,235.4,0.21,4.5,130.0,"15:42:32",1
"21/02/20","16:00",0.0,15.2,46.7,1006.9,287.6,2.8,6.4,328.2,0.14,3.9,130.0,"15:55:20",1
"21/02/20","16:10",0.0,15.4,48.6,1006.7,275.9,2.3,4.7,312.3,0.15,4.7,130.0,"16:04:24",1
"21/02/20","16:20",0.0,15.3,47.3,1006.9,300.8,2.5,4.4,311.1,0.12,4.2,130.0,"16:13:36",1
"21/02/20","16:30",0.0,14.8,47.7,1006.7,316.2,3.7,6.6,332.9,0.10,3.9,130.0,"16:25:28",1
"21/02/20","16:40",0.0,14.7,48.6,1007.1,282.7,2.7,4.3,297.5,0.08,4.0,130.0,"16:36:40",1
"21/02/20","16:50",0.0,14.6,49.3,1007.1,293.7,2.7,7.2,335.2,0.06,4.1,130.0,"16:40:56",1
"21/02/20","17:00",0.0,14.5,49.6,1006.9,277.4,2.2,4.0,241.8,0.04,4.1,130.0,"16:58:32",1
"21/02/20","17:10",0.0,14.3,50.1,1006.9,260.7,2.5,5.2,216.8,0.03,4.1,130.0,"17:04:40",1
"21/02/20","17:20",0.0,14.1,50.9,1006.7,287.5,2.2,5.5,307.8,0.01,4.1,130.0,"17:18:48",1
"21/02/20","17:30",0.0,13.9,51.5,1007.4,265.6,1.8,5.1,234.4,0.00,4.1,130.0,"17:24:56",1
"21/02/20","17:40",0.0,13.4,52.8,1007.1,289.3,1.0,1.7,293.7,0.00,4.0,130.0,"17:36:40",1
"21/02/20","17:50",0.0,12.9,54.4,1007.4,266.2,0.6,1.3,313.1,0.00,4.0,130.0,"17:40:18",1
"21/02/20","18:00",0.0,12.5,57.0,1007.6,256.9,1.1,1.9,266.8,0.00,4.3,130.0,"17:55:04",1
"21/02/20","18:10",0.0,12.5,57.8,1007.6,240.7,1.6,6.0,233.8,0.00,4.5,130.0,"18:05:56",1
"21/02/20","18:20",0.0,12.0,59.6,1007.8,283.7,1.5,2.2,245.7,0.00,4.4,130.0,"18:15:32",1
"21/02/20","18:30",0.0,11.2,62.1,1007.6,336.9,1.3,2.7,339.4,0.00,4.3,130.0,"18:26:20",1
"21/02/20","18:40",0.0,10.3,65.6,1007.6,339.3,1.7,3.5,318.9,0.00,4.2,130.0,"18:33:28",1
"21/02/20","18:50",0.0,9.7,68.1,1008.1,306.4,1.8,2.7,318.9,0.00,4.1,130.0,"18:45:28",1
"21/02/20","19:00",0.0,9.4,69.7,1007.8,300.0,2.0,2.6,306.8,0.00,4.2,130.0,"18:51:44",1
"21/02/20","19:10",0.0,9.1,70.9,1008.3,298.1,1.8,2.5,315.9,0.00,4.1,130.0,"19:05:20",1
"21/02/20","19:20",0.0,8.9,72.1,1008.1,318.6,1.8,2.4,301.7,0.00,4.2,130.0,"19:12:32",1
"21/02/20","19:30",0.0,8.5,72.9,1008.1,305.1,1.8,2.8,323.1,0.00,4.0,130.0,"19:21:36",1
"21/02/20","19:40",0.0,8.1,74.0,1008.3,308.5,1.6,2.6,330.7,0.00,3.8,130.0,"19:32:00",1
"21/02/20","19:50",0.0,7.9,74.9,1008.1,315.4,1.6,2.4,309.8,0.00,3.8,130.0,"19:44:00",1
"21/02/20","20:00",0.0,7.6,76.4,1008.1,342.8,0.3,1.3,306.7,0.00,3.8,130.0,"19:55:20",1
"21/02/20","20:10",0.0,7.4,77.4,1008.3,311.5,1.3,3.1,314.9,0.00,3.8,130.0,"20:08:08",1
"21/02/20","20:20",0.0,6.9,79.2,1008.3,318.8,2.2,3.2,324.5,0.00,3.6,130.0,"20:12:48",1
"21/02/20","20:30",0.0,7.0,81.3,1008.3,328.2,2.5,3.3,321.0,0.00,4.1,130.0,"20:24:48",1
"21/02/20","20:40",0.0,7.1,82.7,1008.6,313.9,1.5,3.3,337.6,0.00,4.4,130.0,"20:31:36",1
"21/02/20","20:50",0.0,6.8,83.5,1008.6,292.9,1.7,2.5,292.7,0.00,4.2,130.0,"20:47:04",1
"21/02/20","21:00",0.0,6.9,84.4,1008.6,298.2,1.7,2.8,325.9,0.00,4.5,130.0,"20:55:44",1
"21/02/20","21:10",0.0,6.9,85.0,1008.3,306.9,1.8,2.5,315.9,0.00,4.6,130.0,"21:01:52",1
"21/02/20","21:20",0.0,6.8,85.5,1008.6,299.6,1.5,2.0,317.0,0.00,4.6,130.0,"21:10:16",1
"21/02/20","21:30",0.0,6.7,85.9,1008.6,320.6,1.8,2.8,321.7,0.00,4.6,130.0,"21:28:08",1
"21/02/20","21:40",0.0,6.5,86.4,1008.3,314.3,1.8,2.5,322.7,0.00,4.4,130.0,"21:38:56",1
"21/02/20","21:50",0.0,6.3,86.8,1008.8,305.0,1.2,2.2,322.9,0.00,4.3,130.0,"21:41:20",1
"21/02/20","22:00",0.0,6.2,87.1,1008.8,317.6,1.6,2.0,324.3,0.00,4.3,130.0,"21:56:32",1
"21/02/20","22:10",0.0,5.9,87.5,1008.8,301.9,1.2,1.7,312.7,0.00,4.0,130.0,"22:00:48",1
"21/02/20","22:20",0.0,6.1,88.0,1008.6,320.5,1.3,2.6,321.9,0.00,4.3,130.0,"22:15:20",1
"21/02/20","22:30",0.0,5.6,88.3,1008.6,304.3,1.6,2.8,310.4,0.00,3.9,130.0,"22:24:48",1
"21/02/20","22:40",0.0,5.3,88.9,1008.8,313.8,1.8,2.8,318.8,0.00,3.7,130.0,"22:39:44",1
"21/02/20","22:50",0.0,5.2,89.3,1008.8,315.4,1.3,2.4,326.1,0.00,3.6,130.0,"22:40:16",1
"21/02/20","23:00",0.0,5.0,89.6,1009.3,303.5,1.3,1.9,305.7,0.00,3.5,130.0,"22:52:32",1
"21/02/20","23:10",0.0,4.9,90.0,1009.3,296.2,1.5,2.4,309.2,0.00,3.4,130.0,"23:07:12",1
"21/02/20","23:20",0.0,4.7,90.4,1009.0,310.4,1.6,2.2,320.4,0.00,3.3,130.0,"23:17:20",1
"21/02/20","23:30",0.0,4.8,90.7,1008.8,309.5,1.6,2.0,318.2,0.00,3.5,130.0,"23:29:44",1
"21/02/20","23:40",0.0,4.6,91.0,1009.0,299.0,1.5,2.8,317.2,0.00,3.3,130.0,"23:35:04",1
"21/02/20","23:50",0.0,4.8,91.4,1009.0,323.9,1.5,3.2,316.9,0.00,3.6,130.0,"23:46:40",1
"21/02/20","24:00",0.0,4.5,91.6,1008.8,291.0,1.3,1.9,251.8,0.00,3.3,130.0,"23:52:16",1
